Flag for Canada Weather past 2 weeks in Iqaluit, Nunavut Territory, Canada

Now
-17 °F

Snow flurries. Clear.


Feels Like: -41 °F
Forecast: -13 / -7 °F
Wind: 15 mph from Northwest

Location: Iqaluit

Current Time: Dec 19, 2014 at 9:46:24 AM

Latest Report: Dec 19, 2014 at 9:00 AM


Visibility: 25 mi

Pressure: 30.14 "Hg

Humidity: 69%

Dew point: -24 °F

Location of IqaluitLocation

Historic Weather in Iqaluit — Graph

°F

Iqaluit temperature yesterday

Maximum temperature yesterday: 14 °F (at 12:00 AM)
Minimum temperature yesterday: -15 °F (at 11:00 PM)
Average temperature yesterday: -1 °F

Past Weeks' High & Low Weather Summary

 TemperatureHumidityPressure
High23 °F (Dec 11, 8:00 AM)86% (Dec 13, 10:00 PM)30.53 "Hg (Dec 13, 10:00 PM)
Low-26 °F (Dec 9, 7:00 PM)50% (Dec 7, 7:00 AM)29.22 "Hg (Dec 4, 7:00 PM)
Average-3 °F70%29.89 "Hg
* Reported Dec 4 8:00 AM — Dec 19 8:00 AM, Iqaluit, Weather by CustomWeather, © 2014

Note: Actual official high and low records may vary slightly from our data, if they occured in-between our weather recording intervals... More about our weather records

Advertising

Iqaluit weather history for previous 24 hours

 ConditionsComfort  
Time TempWeatherWind HumidityBarometerVisibility
8:00 AM
Dec 19
-13 °FClear.16 mph69%30.12 "Hg15 mi
7:00 AM-15 °FSnow flurries. Clear.15 mph69%30.11 "Hg15 mi
6:00 AM-15 °FSnow flurries. Clear.14 mph69%30.11 "Hg15 mi
5:00 AM-15 °FSnow flurries. Clear.23 mph69%30.10 "Hg15 mi
4:00 AM-15 °FSnow flurries. Clear.17 mph69%30.09 "Hg15 mi
3:00 AM-13 °FSnow flurries. Clear.15 mph69%30.09 "Hg15 mi
2:00 AM-15 °FSnow flurries. Clear.12 mph69%30.09 "Hg15 mi
1:00 AM-15 °FSnow flurries. Clear.13 mph69%30.06 "Hg15 mi
12:00 AM-13 °FSnow flurries. Clear.12 mph69%30.06 "Hg15 mi
11:00 PM
Dec 18
-15 °FSnow flurries. Clear.13 mph69%30.04 "Hg15 mi
10:00 PM-13 °FSnow flurries. Clear.16 mph69%30.02 "Hg15 mi
9:00 PM-11 °FSnow flurries. Clear.20 mph63%30.00 "Hg10 mi
8:00 PM-9 °FSnow flurries. Clear.13 mph70%29.98 "Hg5 mi
7:00 PM-9 °FSnow flurries. Clear.15 mph77%29.94 "Hg5 mi
6:00 PM-8 °FSnow flurries. Clear.24 mph70%29.91 "Hg5 mi
5:00 PM-8 °FSnow flurries. Clear.25 mph70%29.89 "Hg5 mi
4:00 PM-8 °FSnow flurries. Clear.28 mph77%29.86 "Hg5 mi
3:00 PM-8 °FLow level haze.25 mph70%29.84 "Hg5 mi
2:00 PM-8 °FLow level haze.25 mph70%29.81 "Hg5 mi
1:00 PM-6 °FScattered clouds.20 mph70%29.78 "Hg20 mi
12:00 PM-4 °FLight snow. Partly sunny.22 mph77%29.76 "Hg20 mi
11:00 AM0 °FLight snow. Partly sunny.17 mph71%29.75 "Hg20 mi
10:00 AM0 °FLight snow. Broken clouds.18 mph78%29.75 "Hg15 mi
9:00 AM0 °FLight snow. Passing clouds.15 mph78%29.74 "Hg15 mi
Weather by CustomWeather, © 2014

See weather overviewHow to use our weather pages